Terminal Aerodrome Forecast
Issued by NWS Milwaukee/Sullivan, WI

Home | Current Version | Previous Version | Text Only | Print | Product List | Glossary On
Versions: 1 2 3 4 5 6 7 8 9 10 11 12 13 14 15 16 17 18 19 20 21 22 23 24 25 26 27 28 29 30 31 32 33 34 35 36 37 38 39 40 41 42 43 44 45 46 47 48 49 50
000
FTUS43 KMKX 230547 AAA
TAFMSN
TAF AMD
KMSN 230547Z 2306/2406 13005KT 5SM BR BKN013
     FM230800 VRB03KT 2SM BR BKN007
     FM231100 VRB03KT 1SM BR BKN003
     FM231500 10005KT 4SM BR BKN008
     FM231700 10006KT P6SM BKN035
     FM232100 12007KT P6SM VCTS SCT035CB BKN050=

USA.gov is the U.S. government's official web portal to all federal, state and local government web resources and services.